TimeCDT,TemperatureF,Dew PointF,Humidity,Sea Level PressureIn,VisibilityMPH,Wind Direction,Wind SpeedMPH,Gust SpeedMPH,PrecipitationIn,Events,Conditions,WindDirDegrees,DateUTC
12:15 AM,42.8,42.8,100,30.00,10.0,WNW,3.5,-,N/A,,Clear,300,2013-09-21 05:15:00
12:35 AM,42.8,42.8,100,30.00,10.0,WNW,3.5,-,N/A,,Partly Cloudy,300,2013-09-21 05:35:00
12:55 AM,39.2,39.2,100,30.00,10.0,WNW,3.5,-,N/A,,Scattered Clouds,300,2013-09-21 05:55:00
1:15 AM,39.2,39.2,100,30.00,10.0,Calm,Calm,-,N/A,,Mostly Cloudy,0,2013-09-21 06:15:00
1:35 AM,39.2,39.2,100,30.00,10.0,Calm,Calm,-,N/A,,Overcast,0,2013-09-21 06:35:00
1:55 AM,37.4,37.4,100,30.00,10.0,Calm,Calm,-,N/A,,Scattered Clouds,0,2013-09-21 06:55:00
2:15 AM,39.2,39.2,100,30.00,10.0,Calm,Calm,-,N/A,,Partly Cloudy,0,2013-09-21 07:15:00
2:35 AM,37.4,37.4,100,30.00,10.0,Calm,Calm,-,N/A,,Partly Cloudy,0,2013-09-21 07:35:00
2:55 AM,37.4,37.4,100,30.00,10.0,Calm,Calm,-,N/A,,Partly Cloudy,0,2013-09-21 07:55:00
3:15 AM,37.4,37.4,100,30.00,10.0,Calm,Calm,-,N/A,,Clear,0,2013-09-21 08:15:00
3:35 AM,35.6,35.6,100,30.00,10.0,Calm,Calm,-,N/A,,Clear,0,2013-09-21 08:35:00
3:55 AM,35.6,35.6,100,30.00,10.0,Calm,Calm,-,N/A,,Clear,0,2013-09-21 08:55:00
4:15 AM,35.6,35.6,100,30.00,10.0,Calm,Calm,-,N/A,,Clear,0,2013-09-21 09:15:00
4:35 AM,33.8,33.8,100,30.01,10.0,Calm,Calm,-,N/A,,Clear,0,2013-09-21 09:35:00
4:55 AM,33.8,33.8,100,30.01,10.0,Calm,Calm,-,N/A,,Partly Cloudy,0,2013-09-21 09:55:00
5:15 AM,32.0,32.0,100,30.02,10.0,Calm,Calm,-,N/A,,Scattered Clouds,0,2013-09-21 10:15:00
5:35 AM,32.0,32.0,100,30.02,10.0,Calm,Calm,-,N/A,,Scattered Clouds,0,2013-09-21 10:35:00
5:55 AM,32.0,32.0,100,30.02,10.0,Calm,Calm,-,N/A,,Clear,0,2013-09-21 10:55:00
6:15 AM,32.0,32.0,100,30.02,10.0,Calm,Calm,-,N/A,,Clear,0,2013-09-21 11:15:00
6:35 AM,32.0,32.0,100,30.01,10.0,Calm,Calm,-,N/A,,Clear,0,2013-09-21 11:35:00
6:55 AM,32.0,32.0,100,30.01,10.0,Calm,Calm,-,N/A,,Clear,0,2013-09-21 11:55:00
7:15 AM,32.0,32.0,100,30.02,10.0,Calm,Calm,-,N/A,,Clear,0,2013-09-21 12:15:00
7:35 AM,32.0,32.0,100,30.02,10.0,Calm,Calm,-,N/A,,Clear,0,2013-09-21 12:35:00
7:55 AM,32.0,32.0,100,30.02,10.0,Calm,Calm,-,N/A,,Clear,0,2013-09-21 12:55:00
8:15 AM,33.8,33.8,100,30.02,10.0,Calm,Calm,-,N/A,,Clear,0,2013-09-21 13:15:00
8:35 AM,35.6,35.6,100,30.02,10.0,Calm,Calm,-,N/A,,Clear,0,2013-09-21 13:35:00
8:55 AM,39.2,39.2,100,30.03,10.0,Calm,Calm,-,N/A,,Clear,0,2013-09-21 13:55:00
9:15 AM,41.0,41.0,100,30.02,10.0,Calm,Calm,-,N/A,,Clear,0,2013-09-21 14:15:00
9:35 AM,44.6,44.6,100,30.03,10.0,Calm,Calm,-,N/A,,Clear,0,2013-09-21 14:35:00
9:55 AM,46.4,44.6,93,30.02,10.0,South,3.5,-,N/A,,Clear,170,2013-09-21 14:55:00
10:15 AM,48.2,42.8,82,30.02,10.0,East,4.6,-,N/A,,Clear,100,2013-09-21 15:15:00
10:35 AM,48.2,41.0,76,30.02,10.0,SE,5.8,-,N/A,,Clear,130,2013-09-21 15:35:00
10:55 AM,48.2,41.0,76,30.02,10.0,SE,4.6,-,N/A,,Clear,140,2013-09-21 15:55:00
11:15 AM,50.0,41.0,71,30.01,10.0,Calm,Calm,-,N/A,,Clear,0,2013-09-21 16:15:00
11:35 AM,50.0,41.0,71,30.01,10.0,SSE,5.8,-,N/A,,Clear,150,2013-09-21 16:35:00
11:55 AM,51.8,41.0,67,30.01,10.0,ESE,4.6,-,N/A,,Clear,110,2013-09-21 16:55:00
12:15 PM,53.6,41.0,62,30.00,10.0,ESE,6.9,-,N/A,,Clear,110,2013-09-21 17:15:00
12:35 PM,53.6,41.0,62,29.99,10.0,ESE,3.5,-,N/A,,Clear,110,2013-09-21 17:35:00
12:55 PM,53.6,41.0,62,29.98,10.0,SSW,6.9,-,N/A,,Clear,200,2013-09-21 17:55:00
1:15 PM,55.4,41.0,58,29.98,10.0,Calm,Calm,-,N/A,,Clear,0,2013-09-21 18:15:00
1:35 PM,55.4,41.0,58,29.97,10.0,ESE,6.9,-,N/A,,Clear,110,2013-09-21 18:35:00
1:55 PM,55.4,41.0,58,29.96,10.0,SE,5.8,-,N/A,,Clear,130,2013-09-21 18:55:00
2:15 PM,57.2,41.0,55,29.95,10.0,SE,9.2,-,N/A,,Clear,130,2013-09-21 19:15:00
2:35 PM,57.2,41.0,55,29.94,10.0,SE,8.1,-,N/A,,Clear,140,2013-09-21 19:35:00
2:55 PM,57.2,41.0,55,29.94,10.0,SSE,4.6,-,N/A,,Clear,150,2013-09-21 19:55:00
3:15 PM,57.2,41.0,55,29.93,10.0,ESE,9.2,16.1,N/A,,Clear,120,2013-09-21 20:15:00
3:35 PM,59.0,41.0,51,29.92,10.0,SSE,9.2,-,N/A,,Clear,150,2013-09-21 20:35:00
3:55 PM,59.0,41.0,51,29.91,10.0,SSE,6.9,-,N/A,,Clear,160,2013-09-21 20:55:00
4:15 PM,59.0,41.0,51,29.90,10.0,SE,9.2,-,N/A,,Clear,140,2013-09-21 21:15:00
4:35 PM,59.0,39.2,48,29.90,10.0,SE,12.7,-,N/A,,Clear,140,2013-09-21 21:35:00
4:55 PM,59.0,39.2,48,29.89,10.0,SE,10.4,-,N/A,,Clear,140,2013-09-21 21:55:00
5:15 PM,59.0,39.2,48,29.89,10.0,SE,11.5,-,N/A,,Clear,140,2013-09-21 22:15:00
5:35 PM,59.0,41.0,51,29.88,10.0,SE,9.2,-,N/A,,Clear,140,2013-09-21 22:35:00
5:55 PM,59.0,39.2,48,29.88,10.0,SE,12.7,-,N/A,,Clear,140,2013-09-21 22:55:00
6:15 PM,59.0,39.2,48,29.88,10.0,SE,10.4,-,N/A,,Clear,140,2013-09-21 23:15:00
6:35 PM,57.2,41.0,55,29.88,10.0,SE,9.2,-,N/A,,Clear,140,2013-09-21 23:35:00
6:55 PM,57.2,41.0,55,29.87,10.0,SSE,5.8,-,N/A,,Clear,150,2013-09-21 23:55:00
7:15 PM,53.6,41.0,62,29.87,10.0,ESE,4.6,-,N/A,,Clear,120,2013-09-22 00:15:00
7:35 PM,51.8,41.0,67,29.87,10.0,SE,3.5,-,N/A,,Clear,140,2013-09-22 00:35:00
7:55 PM,50.0,41.0,71,29.87,10.0,ESE,3.5,-,N/A,,Clear,120,2013-09-22 00:55:00
8:15 PM,48.2,44.6,87,29.87,10.0,SE,3.5,-,N/A,,Clear,130,2013-09-22 01:15:00
8:35 PM,46.4,44.6,93,29.87,10.0,ESE,4.6,-,N/A,,Clear,120,2013-09-22 01:35:00
8:55 PM,46.4,44.6,93,29.87,10.0,ESE,4.6,-,N/A,,Clear,120,2013-09-22 01:55:00
9:15 PM,44.6,44.6,100,29.87,10.0,ESE,3.5,-,N/A,,Clear,120,2013-09-22 02:15:00
9:35 PM,44.6,44.6,100,29.87,10.0,SE,3.5,-,N/A,,Clear,130,2013-09-22 02:35:00
9:55 PM,44.6,44.6,100,29.87,10.0,ESE,3.5,-,N/A,,Clear,120,2013-09-22 02:55:00
10:15 PM,44.6,44.6,100,29.87,10.0,Calm,Calm,-,N/A,,Clear,0,2013-09-22 03:15:00
10:35 PM,42.8,42.8,100,29.87,10.0,Calm,Calm,-,N/A,,Scattered Clouds,0,2013-09-22 03:35:00
10:55 PM,42.8,42.8,100,29.87,10.0,SE,3.5,-,N/A,,Partly Cloudy,130,2013-09-22 03:55:00
11:15 PM,41.0,41.0,100,29.87,10.0,SE,5.8,-,N/A,,Partly Cloudy,130,2013-09-22 04:15:00
11:35 PM,41.0,41.0,100,29.87,10.0,ESE,3.5,-,N/A,,Clear,120,2013-09-22 04:35:00
11:55 PM,41.0,41.0,100,29.86,10.0,SE,4.6,-,N/A,,Clear,130,2013-09-22 04:55:00